Weather History for Litchfield, MN

Change the Weather History Date:

Saturday, June 11, 2011

  Actual Average Record
Temperature  
Mean Temperature 60 °F -  
Max Temperature 69 °F 79 °F 99 °F (1956)
Min Temperature 51 °F 57 °F 36 °F (1958)
Degree Days  
Heating Degree Days 5    
Growing Degree Days 10 (Base 50)    
Moisture  
Dew Point 48 °F    
Average Humidity 70    
Maximum Humidity 100    
Minimum Humidity 43    
Precipitation  
Precipitation 0.00 in - - ()
Sea Level Pressure  
Sea Level Pressure 30.03 in    
Wind  
Wind Speed 4 mph (NNE)    
Max Wind Speed 10 mph    
Max Gust Speed -    
Visibility 10 miles    
Events      
Averages and records for this station are not official NWS values.
T = Trace of Precipitation, MM = Missing Value Source: NWS Daily Summary

Daily Weather History Graph

Daily Weather History Graph

Search for Another Location

Airport:

Trip Planner

Search our weather history database for the weather conditions in past years. The results will help you decide how hot, cold, wet, or windy it might be!

Date:

Astronomy

Jun. 11, 2011 Rise Set
Actual Time 5:30 AM CDT 9:04 PM CDT
Civil Twilight 4:53 AM CDT 9:42 PM CDT
Nautical Twilight 4:04 AM CDT 10:31 PM CDT
Astronomical Twilight 2:59 AM CDT 11:36 PM CDT
Moon 4:40 PM CDT (6/11) 2:15 AM CDT (6/11)
Length of Visible Light 16h 48m
Length of Day
15h 34m
Waxing Gibbous, 79% of the Moon is Illuminated
Jun 11
Waxing Gibbous
Jun 15
Full
Jun 23
Last Quarter
Jul 1
New
Jul 8
First Quarter

Hourly Weather History & Observations

Time (CDT) Temp. Dew Point Humidity Pressure Visibility Wind Dir Wind Speed Gust Speed Precip Events Conditions
12:13 AM 55.4 °F 55.4 °F 100% 30.01 in 10.0 mi Calm Calm - N/A   Overcast
12:33 AM 55.4 °F 55.4 °F 100% 30.00 in 10.0 mi Calm Calm - N/A   Overcast
12:53 AM 55.4 °F 55.4 °F 100% 30.00 in 10.0 mi Calm Calm - N/A   Overcast
1:13 AM 57.2 °F 55.4 °F 94% 30.00 in 10.0 mi Calm Calm - N/A   Overcast
1:33 AM 55.4 °F 55.4 °F 100% 30.00 in 10.0 mi Calm Calm - N/A   Unknown
1:52 AM 55.4 °F 55.4 °F 100% 30.00 in 10.0 mi ENE 6.9 mph - N/A   Unknown
2:13 AM 53.6 °F 51.8 °F 94% 30.00 in 10.0 mi ENE 8.1 mph - N/A   Drizzle
2:33 AM 53.6 °F 50.0 °F 88% 30.01 in 10.0 mi NE 5.8 mph - N/A   Overcast
2:53 AM 53.6 °F 50.0 °F 88% 30.01 in 10.0 mi NNE 5.8 mph - N/A   Overcast
3:13 AM 53.6 °F 50.0 °F 88% 30.00 in 10.0 mi NNE 4.6 mph - N/A   Overcast
3:33 AM 51.8 °F 50.0 °F 94% 30.00 in 10.0 mi NNE 3.5 mph - N/A   Overcast
3:53 AM 51.8 °F 50.0 °F 94% 30.00 in 10.0 mi NNE 3.5 mph - N/A   Overcast
4:13 AM 51.8 °F 50.0 °F 94% 30.01 in 10.0 mi North 5.8 mph - N/A   Overcast
4:33 AM 51.8 °F 48.2 °F 88% 30.01 in 10.0 mi North 4.6 mph - N/A   Mostly Cloudy
4:53 AM 51.8 °F 48.2 °F 88% - 10.0 mi North 3.5 mph - N/A   Overcast
5:13 AM 51.8 °F 48.2 °F 88% 30.02 in 10.0 mi North 5.8 mph - N/A   Overcast
5:33 AM 51.8 °F 48.2 °F 88% 30.02 in 10.0 mi North 4.6 mph - N/A   Overcast
5:53 AM 51.8 °F 48.2 °F 88% 30.02 in 10.0 mi NNE 3.5 mph - N/A   Mostly Cloudy
6:13 AM 51.8 °F 48.2 °F 88% 30.03 in 10.0 mi NNE 4.6 mph - N/A   Clear
6:33 AM 51.8 °F 48.2 °F 88% 30.04 in 10.0 mi North 6.9 mph - N/A   Clear
6:53 AM 51.8 °F 48.2 °F 88% - 10.0 mi NNE 5.8 mph - N/A   Clear
7:13 AM 51.8 °F 48.2 °F 88% 30.05 in 10.0 mi North 5.8 mph - N/A   Clear
7:33 AM 53.6 °F 48.2 °F 82% 30.05 in 10.0 mi North 5.8 mph - N/A   Clear
7:53 AM 53.6 °F 48.2 °F 82% 30.05 in 10.0 mi North 6.9 mph - N/A   Clear
8:13 AM 53.6 °F 48.2 °F 82% 30.05 in 10.0 mi NNE 3.5 mph - N/A   Clear
8:33 AM 55.4 °F 50.0 °F 82% 30.06 in 10.0 mi NE 4.6 mph - N/A   Clear
8:53 AM 55.4 °F 50.0 °F 82% 30.06 in 10.0 mi NNE 3.5 mph - N/A   Clear
9:13 AM 57.2 °F 48.2 °F 72% 30.06 in 10.0 mi North 6.9 mph - N/A   Clear
9:33 AM 57.2 °F 48.2 °F 72% 30.06 in 10.0 mi NNE 5.8 mph - N/A   Clear
9:53 AM 59.0 °F 48.2 °F 67% 30.07 in 10.0 mi NNE 3.5 mph - N/A   Clear
10:13 AM 59.0 °F 48.2 °F 67% 30.07 in 10.0 mi NNE 4.6 mph - N/A   Clear
10:33 AM 60.8 °F 50.0 °F 68% 30.07 in 10.0 mi North 5.8 mph - N/A   Scattered Clouds
10:53 AM 60.8 °F 50.0 °F 68% 30.07 in 10.0 mi ENE 6.9 mph - N/A   Scattered Clouds
11:13 AM 62.6 °F 48.2 °F 59% 30.07 in 10.0 mi North 9.2 mph - N/A   Scattered Clouds
11:33 AM 62.6 °F 48.2 °F 59% 30.06 in 10.0 mi North 5.8 mph - N/A   Scattered Clouds
11:53 AM 62.6 °F 46.4 °F 55% 30.05 in 10.0 mi NNE 3.5 mph - N/A   Scattered Clouds
12:13 PM 62.6 °F 46.4 °F 55% 30.05 in 10.0 mi North 8.1 mph - N/A   Clear
12:33 PM 64.4 °F 46.4 °F 52% 30.05 in 10.0 mi North 6.9 mph - N/A   Clear
12:53 PM 64.4 °F 44.6 °F 49% 30.05 in 10.0 mi NE 5.8 mph - N/A   Clear
1:13 PM 64.4 °F 46.4 °F 52% 30.05 in 10.0 mi North 8.1 mph - N/A   Scattered Clouds
1:33 PM 64.4 °F 44.6 °F 49% 30.05 in 10.0 mi NNE 5.8 mph - N/A   Mostly Cloudy
1:53 PM 64.4 °F 46.4 °F 52% 30.05 in 10.0 mi NNE 9.2 mph - N/A   Mostly Cloudy
2:13 PM 66.2 °F 46.4 °F 49% 30.04 in 10.0 mi NNW 9.2 mph - N/A   Mostly Cloudy
2:33 PM 66.2 °F 46.4 °F 49% 30.04 in 10.0 mi North 3.5 mph - N/A   Overcast
2:53 PM 64.4 °F 46.4 °F 52% 30.04 in 10.0 mi North 6.9 mph - N/A   Overcast
3:13 PM 68.0 °F 46.4 °F 46% 30.04 in 10.0 mi NE 6.9 mph - N/A   Overcast
3:33 PM 64.4 °F 44.6 °F 49% 30.03 in 10.0 mi North 3.5 mph - N/A   Mostly Cloudy
3:53 PM 66.2 °F 44.6 °F 46% 30.03 in 10.0 mi North 8.1 mph - N/A   Mostly Cloudy
4:13 PM 66.2 °F 44.6 °F 46% 30.03 in 10.0 mi NE 3.5 mph - N/A   Scattered Clouds
4:33 PM 66.2 °F 44.6 °F 46% 30.03 in 10.0 mi NNE 8.1 mph - N/A   Mostly Cloudy
4:53 PM 68.0 °F 44.6 °F 43% 30.03 in 10.0 mi NNE 5.8 mph - N/A   Scattered Clouds
5:12 PM 68.0 °F 44.6 °F 43% 30.03 in 10.0 mi NNE 3.5 mph - N/A   Scattered Clouds
5:33 PM 66.2 °F 44.6 °F 46% 30.02 in 10.0 mi NNE 3.5 mph - N/A   Scattered Clouds
5:53 PM 69.8 °F 46.4 °F 43% 30.01 in 10.0 mi East 10.4 mph - N/A   Scattered Clouds
6:13 PM 66.2 °F 46.4 °F 49% 30.01 in 0.8 mi East 5.8 mph - N/A   Haze
6:33 PM 66.2 °F 46.4 °F 49% 30.01 in 0.2 mi East 9.2 mph - N/A   Haze
6:53 PM 66.2 °F 44.6 °F 46% 30.01 in 0.8 mi NNE 6.9 mph - N/A   Haze
7:13 PM 66.2 °F 44.6 °F 46% 30.01 in 10.0 mi East 6.9 mph - N/A   Clear
7:33 PM 66.2 °F 44.6 °F 46% 30.02 in 10.0 mi East 6.9 mph - N/A   Clear
7:53 PM 64.4 °F 46.4 °F 52% 30.02 in 10.0 mi East 6.9 mph - N/A   Clear
8:13 PM 64.4 °F 46.4 °F 52% 30.02 in 10.0 mi East 5.8 mph - N/A   Clear
8:33 PM 62.6 °F 44.6 °F 52% 30.02 in 10.0 mi East 6.9 mph - N/A   Clear
8:53 PM 62.6 °F 44.6 °F 52% 30.03 in 10.0 mi East 4.6 mph - N/A   Clear
9:14 PM 60.8 °F 46.4 °F 59% 30.04 in 10.0 mi Calm Calm - N/A   Clear
9:33 PM 59.0 °F 46.4 °F 63% 30.05 in 10.0 mi Calm Calm - N/A   Clear
9:53 PM 57.2 °F 48.2 °F 72% 30.05 in 10.0 mi East 4.6 mph - N/A   Unknown
10:13 PM 55.4 °F 46.4 °F 72% 30.03 in 10.0 mi East 8.1 mph - N/A   Unknown
10:32 PM 57.2 °F 46.4 °F 67% 30.04 in 10.0 mi East 6.9 mph - N/A   Scattered Clouds
10:53 PM 57.2 °F 46.4 °F 67% 30.04 in 10.0 mi East 6.9 mph - N/A   Clear
11:13 PM 55.4 °F 46.4 °F 72% 30.04 in 10.0 mi East 6.9 mph - N/A   Scattered Clouds
11:33 PM 55.4 °F 46.4 °F 72% 30.04 in 10.0 mi ESE 8.1 mph - N/A   Clear
11:53 PM 55.4 °F 48.2 °F 77% 30.03 in 10.0 mi East 6.9 mph - N/A   Clear